DW1762 Weather Reports


time (UTC)temp
F
wind
direction
speed
knots
gust
knots
rain 1hr
in
rain 24hr
in
rain mn
in
humidity
%
barometer
mb
20260906155205 94 90 0.0 3.5 0.00 0.00 0.00 47 1017.8
20260906154804 94 73 0.0 1.7 0.00 0.00 0.00 48 1017.7
20260906154404 93 224 0.9 2.6 0.00 0.00 0.00 49 1017.7
20260906154005 92 216 0.9 2.6 0.00 0.00 0.00 50 1017.7
20260906153605 92 162 0.9 2.6 0.00 0.00 0.00 52 1017.8
20260906152404 91 348 0.0 1.7 0.00 0.00 0.00 55 1017.7
20260906151204 90 117 0.9 3.5 0.00 0.00 0.00 54 1017.8
20260906150804 90 112 0.9 2.6 0.00 0.00 0.00 56 1017.8
20260906150004 89 143 0.9 2.6 0.00 0.00 0.00 56 1017.7
20260906145204 88 101 0.9 2.6 0.00 0.00 0.00 58 1017.8
20260906144804 88 103 0.9 2.6 0.00 0.00 0.00 59 1017.7
20260906144404 88 106 0.0 2.6 0.00 0.00 0.00 59 1017.7
20260906144004 87 137 0.9 1.7 0.00 0.00 0.00 62 1017.8
20260906143604 86 144 0.9 1.7 0.00 0.00 0.00 63 1017.8
20260906143204 86 139 0.0 1.7 0.00 0.00 0.00 64 1017.8
20260906142804 85 211 0.0 1.7 0.00 0.00 0.00 66 1017.8
20260906142403 84 221 0.0 1.7 0.00 0.00 0.00 67 1017.7
20260906142005 84 0 0.0 0.0 0.00 0.00 0.00 69 1017.7
20260906141203 82 0 0.0 0.0 0.00 0.00 0.00 72 1017.7
20260906140804 82 0 0.0 0.0 0.00 0.00 0.00 73 1017.7
20260906140404 81 244 0.0 0.9 0.00 0.00 0.00 74 1017.8
20260906140004 80 235 0.0 0.9 0.00 0.00 0.00 75 1017.7
20260906135604 80 235 0.0 0.9 0.00 0.00 0.00 76 1017.7
20260906135205 79 207 0.0 0.9 0.00 0.00 0.00 78 1017.7
20260906134804 78 206 0.0 0.9 0.00 0.00 0.00 79 1017.6
20260906134404 77 0 0.0 0.0 0.00 0.00 0.00 81 1017.6
20260906134004 76 0 0.0 0.0 0.00 0.00 0.00 82 1017.6
20260906133203 75 0 0.0 0.0 0.00 0.00 0.00 85 1017.6
20260906132804 74 0 0.0 0.0 0.00 0.00 0.00 85 1017.6
20260906132405 74 0 0.0 0.0 0.00 0.00 0.00 86 1017.5
20260906132005 74 0 0.0 0.0 0.00 0.00 0.00 87 1017.5
20260906131605 73 0 0.0 0.0 0.00 0.00 0.00 88 1017.5
20260906131204 73 0 0.0 0.0 0.00 0.00 0.00 89 1017.5
20260906130404 72 0 0.0 0.0 0.00 0.00 0.00 90 1017.4
20260906130005 72 0 0.0 0.0 0.00 0.00 0.00 91 1017.4
20260906125604 71 0 0.0 0.0 0.00 0.00 0.00 91 1017.3
20260906125204 71 0 0.0 0.0 0.00 0.00 0.00 92 1017.3
20260906124805 70 0 0.0 0.0 0.00 0.00 0.00 92 1017.3
20260906124404 70 0 0.0 0.0 0.00 0.00 0.00 93 1017.3
20260906124005 69 0 0.0 0.0 0.00 0.00 0.00 92 1017.2
20260906123604 69 0 0.0 0.0 0.00 0.00 0.00 92 1017.1
20260906123204 69 355 0.0 0.9 0.00 0.00 0.00 93 1017.0
20260906122804 69 355 0.0 0.9 0.00 0.00 0.00 93 1017.0
20260906122004 69 0 0.0 0.0 0.00 0.00 0.00 93 1017.1
20260906121604 69 0 0.0 0.0 0.00 0.00 0.00 92 1016.9
20260906121204 69 0 0.0 0.0 0.00 0.00 0.00 92 1016.9
20260906120804 69 0 0.0 0.0 0.00 0.00 0.00 93 1016.9
20260906120404 69 0 0.0 0.0 0.00 0.00 0.00 93 1016.9
20260906120004 69 0 0.0 0.0 0.00 0.00 0.00 93 1016.8
20260906115604 69 0 0.0 0.0 0.00 0.00 0.00 92 1016.8
20260906115204 69 0 0.0 0.0 0.00 0.00 0.00 93 1016.8
20260906114804 69 0 0.0 0.0 0.00 0.00 0.00 93 1016.7
20260906114405 69 0 0.0 0.0 0.00 0.00 0.00 92 1016.7
20260906114004 69 0 0.0 0.0 0.00 0.00 0.00 91 1016.7
20260906113604 69 0 0.0 0.0 0.00 0.00 0.00 91 1016.5
20260906113204 69 0 0.0 0.0 0.00 0.00 0.00 92 1016.5
20260906112004 69 0 0.0 0.0 0.00 0.00 0.00 92 1016.4
20260906111204 69 0 0.0 0.0 0.00 0.00 0.00 91 1016.4
20260906110804 69 0 0.0 0.0 0.00 0.00 0.00 91 1016.3
20260906110404 70 0 0.0 0.0 0.00 0.00 0.00 91 1016.3
20260906105605 70 0 0.0 0.0 0.00 0.00 0.00 91 1016.3
20260906105204 70 0 0.0 0.0 0.00 0.00 0.00 91 1016.3
20260906104804 70 0 0.0 0.0 0.00 0.00 0.00 92 1016.3
20260906104405 70 0 0.0 0.0 0.00 0.00 0.00 92 1016.2
20260906104004 70 0 0.0 0.0 0.00 0.00 0.00 92 1016.2
20260906103604 69 0 0.0 0.0 0.00 0.00 0.00 92 1016.1
20260906103204 69 0 0.0 0.0 0.00 0.00 0.00 92 1016.1
20260906102805 70 0 0.0 0.0 0.00 0.00 0.00 91 1016.1
20260906102404 70 0 0.0 0.0 0.00 0.00 0.00 91 1016.1
20260906102004 70 0 0.0 0.0 0.00 0.00 0.00 91 1016.0
20260906101604 70 0 0.0 0.0 0.00 0.00 0.00 90 1016.0
20260906101204 70 0 0.0 0.0 0.00 0.00 0.00 90 1016.0
20260906100404 70 0 0.0 0.0 0.00 0.00 0.00 90 1016.0
20260906095604 70 0 0.0 0.0 0.00 0.00 0.00 90 1015.9
20260906095204 71 0 0.0 0.0 0.00 0.00 0.00 90 1015.9
20260906094805 71 0 0.0 0.0 0.00 0.00 0.00 90 1015.9
20260906094004 71 0 0.0 0.0 0.00 0.00 0.00 89 1015.9
20260906093605 71 0 0.0 0.0 0.00 0.00 0.00 89 1015.9
20260906093204 71 0 0.0 0.0 0.00 0.00 0.00 88 1015.7
20260906092804 71 0 0.0 0.0 0.00 0.00 0.00 88 1015.8
20260906092004 71 0 0.0 0.0 0.00 0.00 0.00 88 1015.7
20260906091604 71 0 0.0 0.0 0.00 0.00 0.00 88 1015.7
20260906091204 72 0 0.0 0.0 0.00 0.00 0.00 88 1015.7
20260906090404 72 0 0.0 0.0 0.00 0.00 0.00 88 1015.7
20260906090005 72 0 0.0 0.0 0.00 0.00 0.00 87 1015.7
20260906085204 73 0 0.0 0.0 0.00 0.00 0.00 84 1015.6
20260906084804 73 0 0.0 0.0 0.00 0.00 0.00 83 1015.6
20260906084004 74 0 0.0 0.0 0.00 0.00 0.00 84 1015.6
20260906083204 73 0 0.0 0.0 0.00 0.00 0.00 84 1015.6
20260906082804 73 0 0.0 0.0 0.00 0.00 0.00 84 1015.7
20260906082404 73 0 0.0 0.0 0.00 0.00 0.00 84 1015.7
20260906081605 73 0 0.0 0.0 0.00 0.00 0.00 85 1015.7
20260906081204 73 0 0.0 0.0 0.00 0.00 0.00 85 1015.7
20260906080804 73 0 0.0 0.0 0.00 0.00 0.00 86 1015.6
20260906080404 73 0 0.0 0.0 0.00 0.00 0.00 86 1015.6
20260906080005 73 0 0.0 0.0 0.00 0.00 0.00 86 1015.7
20260906075604 73 51 0.0 0.9 0.00 0.00 0.00 85 1015.7
20260906074804 73 55 0.0 0.9 0.00 0.00 0.00 84 1015.8
20260906074404 74 0 0.0 0.0 0.00 0.00 0.00 83 1015.7
20260906074004 74 0 0.0 0.0 0.00 0.00 0.00 82 1015.7
20260906073604 74 0 0.0 0.0 0.00 0.00 0.00 82 1015.7
20260906072804 74 0 0.0 0.0 0.00 0.00 0.00 82 1015.8
20260906072404 74 0 0.0 0.0 0.00 0.00 0.00 82 1015.8
20260906072005 74 0 0.0 0.0 0.00 0.00 0.00 82 1015.8
20260906071604 74 0 0.0 0.0 0.00 0.00 0.00 82 1015.9
20260906071204 74 0 0.0 0.0 0.00 0.00 0.00 82 1015.9
20260906070404 75 0 0.0 0.0 0.00 0.00 0.00 81 1015.8
20260906070006 75 0 0.0 0.0 0.00 0.00 0.00 80 1015.8
20260906065605 75 0 0.0 0.0 0.00 0.00 0.00 80 1015.9
20260906065204 75 0 0.0 0.0 0.00 0.00 0.00 80 1015.9
20260906064405 75 0 0.0 0.0 0.00 0.00 0.00 80 1016.0
20260906064004 75 0 0.0 0.0 0.00 0.00 0.00 80 1016.0
20260906063205 75 0 0.0 0.0 0.00 0.00 0.00 80 1016.0
20260906062805 75 0 0.0 0.0 0.00 0.00 0.00 80 1016.1
20260906062405 75 0 0.0 0.0 0.00 0.00 0.00 79 1016.0
20260906062005 76 0 0.0 0.0 0.00 0.00 0.00 79 1016.0
20260906061604 76 0 0.0 0.0 0.00 0.00 0.00 78 1016.0
20260906061204 76 0 0.0 0.0 0.00 0.00 0.00 78 1016.0
20260906060804 76 0 0.0 0.0 0.00 0.00 0.00 77 1016.1
20260906060405 76 0 0.0 0.0 0.00 0.00 0.00 77 1016.1
20260906060005 76 0 0.0 0.0 0.00 0.00 0.00 78 1016.1
20260906055604 76 0 0.0 0.0 0.00 0.00 0.00 77 1016.0
20260906054804 76 0 0.0 0.0 0.00 0.00 0.00 77 1016.0
20260906054405 76 0 0.0 0.0 0.00 0.00 0.00 77 1015.9
20260906054005 77 0 0.0 0.0 0.00 0.00 0.00 76 1015.9
20260906053604 77 0 0.0 0.0 0.00 0.00 0.00 76 1015.9
20260906053204 77 0 0.0 0.0 0.00 0.00 0.00 76 1015.9
20260906052804 77 0 0.0 0.0 0.00 0.00 0.00 75 1016.0
20260906052005 77 0 0.0 0.0 0.00 0.00 0.00 75 1015.8
20260906051205 77 0 0.0 0.0 0.00 0.00 0.00 75 1015.8
20260906050805 77 0 0.0 0.0 0.00 0.00 0.00 75 1015.8
20260906050404 77 0 0.0 0.0 0.00 0.00 0.00 75 1015.8
20260906050007 78 0 0.0 0.0 0.00 0.00 0.00 74 1015.9
20260906045604 78 0 0.0 0.0 0.00 0.00 0.00 73 1015.8
20260906045204 78 0 0.0 0.0 0.00 0.00 0.00 72 1015.8
20260906044805 78 0 0.0 0.0 0.00 0.00 0.00 72 1015.9
20260906043204 80 0 0.0 0.0 0.00 0.00 0.00 69 1015.7
20260906042805 79 0 0.0 0.0 0.00 0.00 0.00 69 1015.8
20260906042404 79 0 0.0 0.0 0.00 0.00 0.00 70 1015.8
20260906042004 79 0 0.0 0.0 0.00 0.00 0.00 70 1015.8
20260906041604 79 0 0.0 0.0 0.00 0.00 0.00 70 1015.9
20260906041205 79 0 0.0 0.0 0.00 0.00 0.00 69 1015.9
20260906040404 82 0 0.0 0.0 0.00 0.00 0.00 65 1015.8
20260906040004 82 0 0.0 0.0 0.00 0.00 0.00 63 1015.7
20260906035204 82 65 0.0 1.7 0.00 0.00 0.00 62 1015.7
20260906034804 83 70 0.9 1.7 0.00 0.00 0.00 62 1015.7
20260906034404 83 74 0.9 1.7 0.00 0.00 0.00 62 1015.7
20260906033605 83 72 0.9 1.7 0.00 0.00 0.00 61 1015.7
20260906032804 83 68 0.0 0.9 0.00 0.00 0.00 61 1015.7
20260906032404 83 68 0.9 0.9 0.00 0.00 0.00 61 1015.6
20260906032006 84 68 0.9 1.7 0.00 0.00 0.00 60 1015.6
20260906031604 84 68 0.9 1.7 0.00 0.00 0.00 60 1015.6
20260906031204 84 69 0.9 1.7 0.00 0.00 0.00 60 1015.7
20260906030804 84 68 0.9 1.7 0.00 0.00 0.00 60 1015.6
20260906030404 84 66 0.9 1.7 0.00 0.00 0.00 59 1015.5
20260906030005 84 66 0.9 1.7 0.00 0.00 0.00 59 1015.5
20260906025205 84 68 0.9 1.7 0.00 0.00 0.00 59 1015.4
20260906024805 84 68 0.9 1.7 0.00 0.00 0.00 58 1015.4
20260906024404 84 72 0.0 1.7 0.00 0.00 0.00 58 1015.4
20260906024004 84 0 0.0 0.0 0.00 0.00 0.00 59 1015.4
20260906023205 83 0 0.0 0.0 0.00 0.00 0.00 60 1015.3
20260906022805 83 0 0.0 0.0 0.00 0.00 0.00 60 1015.3
20260906022005 83 0 0.0 0.0 0.00 0.00 0.00 60 1015.2
20260906021605 83 0 0.0 0.0 0.00 0.00 0.00 60 1015.1
20260906020804 83 0 0.0 0.0 0.00 0.00 0.00 60 1015.0
20260906020005 84 0 0.0 0.0 0.00 0.00 0.00 59 1014.9
20260906015205 85 0 0.0 0.0 0.00 0.00 0.00 57 1014.7
20260906014404 86 0 0.0 0.0 0.00 0.00 0.00 53 1014.5
20260906014004 86 0 0.0 0.0 0.00 0.00 0.00 53 1014.6
20260906013604 87 0 0.0 0.0 0.00 0.00 0.00 51 1014.5
20260906012404 88 0 0.0 0.0 0.00 0.00 0.00 49 1014.3
20260906012005 89 0 0.0 0.0 0.00 0.00 0.00 49 1014.2
20260906011604 89 0 0.0 0.0 0.00 0.00 0.00 48 1014.2
20260906011204 89 0 0.0 0.0 0.00 0.00 0.00 47 1014.2
20260906010805 89 64 0.0 1.7 0.00 0.00 0.00 47 1014.1
20260906010404 90 65 0.9 1.7 0.00 0.00 0.00 47 1014.1
20260906010005 90 65 0.9 1.7 0.00 0.00 0.00 47 1014.1
20260906005604 90 65 0.9 1.7 0.00 0.00 0.00 47 1014.1
20260906005205 90 64 0.9 1.7 0.00 0.00 0.00 46 1014.1
20260906004805 90 63 0.9 1.7 0.00 0.00 0.00 46 1014.0
20260906004405 90 63 1.7 1.7 0.00 0.00 0.00 46 1014.0
20260906004006 90 63 1.7 1.7 0.00 0.00 0.00 46 1014.1
20260906003604 90 63 1.7 2.6 0.00 0.00 0.00 46 1014.1
20260906003204 91 63 1.7 2.6 0.00 0.00 0.00 46 1014.1
20260906002405 91 63 1.7 2.6 0.00 0.00 0.00 45 1014.1
20260906002005 91 63 1.7 2.6 0.00 0.00 0.00 45 1014.2
20260906001604 92 61 0.9 2.6 0.00 0.00 0.00 44 1014.2
20260906001204 92 58 0.9 2.6 0.00 0.00 0.00 44 1014.2
20260906000005 93 55 0.9 1.7 0.00 0.00 0.00 42 1014.2
20260905235605 94 55 0.9 1.7 0.00 0.00 0.00 42 1014.1
20260905235204 94 56 0.9 3.5 0.00 0.00 0.00 41 1014.2
20260905234804 94 59 0.9 3.5 0.00 0.00 0.00 41 1014.2
20260905234404 94 58 0.9 3.5 0.00 0.00 0.00 41 1014.2
20260905234005 95 53 0.9 2.6 0.00 0.00 0.00 41 1014.3
20260905233605 95 49 1.7 3.5 0.00 0.00 0.00 41 1014.3
20260905233205 95 46 2.6 5.2 0.00 0.00 0.00 41 1014.3
20260905232004 95 42 2.6 6.1 0.00 0.00 0.00 40 1014.3
20260905230005 103 198 0.0 2.6 0.00 0.00 0.00 30 1014.2
20260905225604 103 224 0.9 3.5 0.00 0.00 0.00 29 1014.0
20260905225205 103 217 0.9 3.5 0.00 0.00 0.00 29 1013.9
20260905224805 103 219 0.9 3.5 0.00 0.00 0.00 29 1013.9
20260905224405 103 217 0.9 3.5 0.00 0.00 0.00 29 1013.9
20260905224005 103 212 0.9 3.5 0.00 0.00 0.00 29 1013.8
20260905223604 104 224 0.9 3.5 0.00 0.00 0.00 29 1013.9
20260905223204 104 223 0.9 3.5 0.00 0.00 0.00 28 1013.8
20260905222804 105 120 0.0 2.6 0.00 0.00 0.00 28 1013.8
20260905222404 104 115 0.0 1.7 0.00 0.00 0.00 28 1013.8
20260905222005 104 124 0.9 3.5 0.00 0.00 0.00 29 1013.8
20260905221605 104 140 0.9 3.5 0.00 0.00 0.00 29 1013.8
20260905221205 104 166 0.0 1.7 0.00 0.00 0.00 28 1013.8
20260905220804 104 163 0.9 2.6 0.00 0.00 0.00 29 1013.7
20260905220404 103 148 0.9 3.5 0.00 0.00 0.00 29 1013.7
20260905220006 103 122 1.7 6.1 0.00 0.00 0.00 29 1013.8
20260905215205 102 87 1.7 6.1 0.00 0.00 0.00 30 1013.8
20260905214405 102 95 1.7 7.0 0.00 0.00 0.00 30 1013.9
20260905214005 102 85 2.6 7.0 0.00 0.00 0.00 30 1014.0
20260905213604 102 92 2.6 7.0 0.00 0.00 0.00 30 1013.9
20260905213205 102 92 2.6 7.0 0.00 0.00 0.00 30 1014.0
20260905212404 102 88 1.7 6.1 0.00 0.00 0.00 29 1014.0
20260905212005 103 103 0.9 5.2 0.00 0.00 0.00 29 1014.0
20260905211604 104 105 0.9 3.5 0.00 0.00 0.00 29 1014.1
20260905211204 103 105 0.9 2.6 0.00 0.00 0.00 29 1014.1
20260905210404 104 142 0.9 2.6 0.00 0.00 0.00 29 1014.3
20260905210004 104 208 0.9 5.2 0.00 0.00 0.00 29 1014.3
20260905205605 103 220 0.9 5.2 0.00 0.00 0.00 30 1014.3
20260905205204 103 220 0.9 5.2 0.00 0.00 0.00 29 1014.4
20260905204804 104 173 0.9 3.5 0.00 0.00 0.00 30 1014.5
20260905204004 104 114 0.9 3.5 0.00 0.00 0.00 29 1014.6
20260905203604 104 134 0.9 1.7 0.00 0.00 0.00 29 1014.7
20260905203205 104 249 0.9 3.5 0.00 0.00 0.00 29 1014.8
20260905202804 104 230 0.9 3.5 0.00 0.00 0.00 30 1014.9
20260905202405 103 213 0.9 3.5 0.00 0.00 0.00 29 1014.9
20260905202005 103 138 0.9 3.5 0.00 0.00 0.00 29 1014.9
20260905201604 104 122 0.9 2.6 0.00 0.00 0.00 30 1015.0
20260905201204 103 189 1.7 3.5 0.00 0.00 0.00 30 1015.1
20260905200804 103 204 1.7 3.5 0.00 0.00 0.00 29 1015.2
20260905200404 104 212 1.7 3.5 0.00 0.00 0.00 30 1015.2
20260905200005 103 215 1.7 3.5 0.00 0.00 0.00 30 1015.2
20260905195604 103 222 1.7 5.2 0.00 0.00 0.00 30 1015.3
20260905195204 103 200 1.7 5.2 0.00 0.00 0.00 30 1015.3
20260905194804 103 160 1.7 5.2 0.00 0.00 0.00 30 1015.4
20260905194404 103 135 1.7 5.2 0.00 0.00 0.00 30 1015.5
20260905194005 103 147 1.7 5.2 0.00 0.00 0.00 31 1015.5
20260905193604 102 161 1.7 6.1 0.00 0.00 0.00 31 1015.6
20260905193204 103 176 1.7 7.0 0.00 0.00 0.00 31 1015.7
20260905192804 102 176 1.7 7.0 0.00 0.00 0.00 31 1015.7
20260905192405 102 165 1.7 6.1 0.00 0.00 0.00 32 1015.7
20260905192006 103 212 1.7 6.1 0.00 0.00 0.00 31 1015.7
20260905191604 102 257 1.7 5.2 0.00 0.00 0.00 32 1015.8
20260905191204 102 255 1.7 3.5 0.00 0.00 0.00 32 1015.9
20260905190405 101 240 1.7 6.1 0.00 0.00 0.00 32 1016.0
20260905190005 101 276 0.9 5.2 0.00 0.00 0.00 32 1016.0
20260905185605 102 110 0.9 3.5 0.00 0.00 0.00 32 1016.1
20260905185204 101 172 1.7 5.2 0.00 0.00 0.00 34 1016.2
20260905184805 101 209 1.7 5.2 0.00 0.00 0.00 33 1016.3
20260905184404 101 220 0.9 5.2 0.00 0.00 0.00 32 1016.4
20260905184004 100 214 0.9 7.0 0.00 0.00 0.00 34 1016.5
20260905183605 100 208 1.7 7.0 0.00 0.00 0.00 34 1016.5
20260905183205 100 209 1.7 6.1 0.00 0.00 0.00 35 1016.6
20260905182804 100 205 1.7 6.1 0.00 0.00 0.00 34 1016.6
20260905182405 100 248 0.9 3.5 0.00 0.00 0.00 35 1016.7
20260905182004 99 257 1.7 6.1 0.00 0.00 0.00 36 1016.8
20260905181605 99 260 1.7 6.1 0.00 0.00 0.00 36 1016.9
20260905180805 99 308 0.9 6.1 0.00 0.00 0.00 36 1017.0
20260905180405 100 325 0.9 6.1 0.00 0.00 0.00 36 1017.0
20260905175605 99 300 1.7 6.1 0.00 0.00 0.00 37 1017.0
20260905174804 100 279 0.9 2.6 0.00 0.00 0.00 37 1017.0
20260905174005 98 133 0.9 3.5 0.00 0.00 0.00 40 1017.3
20260905173605 98 165 0.9 3.5 0.00 0.00 0.00 41 1017.3
20260905173204 98 246 0.9 5.2 0.00 0.00 0.00 40 1017.3
20260905172405 98 320 0.9 5.2 0.00 0.00 0.00 39 1017.5
20260905172005 98 309 1.7 5.2 0.00 0.00 0.00 39 1017.6
20260905171604 99 285 1.7 6.1 0.00 0.00 0.00 39 1017.7
20260905171205 99 258 0.9 6.1 0.00 0.00 0.00 42 1017.7
20260905170805 98 251 0.9 6.1 0.00 0.00 0.00 43 1017.6
20260905170404 98 236 0.9 6.1 0.00 0.00 0.00 43 1017.7
20260905170004 97 307 0.0 3.5 0.00 0.00 0.00 43 1017.7
20260905165604 96 311 0.9 3.5 0.00 0.00 0.00 44 1017.7
20260905165204 96 310 0.9 3.5 0.00 0.00 0.00 45 1017.7
20260905164805 96 289 1.7 3.5 0.00 0.00 0.00 46 1017.8
20260905164404 95 284 1.7 3.5 0.00 0.00 0.00 46 1017.8
20260905163605 96 296 0.9 5.2 0.00 0.00 0.00 44 1017.9
20260905163204 95 5 0.9 2.6 0.00 0.00 0.00 47 1017.9
20260905162404 95 347 0.9 6.1 0.00 0.00 0.00 47 1018.0
20260905162005 95 334 0.9 6.1 0.00 0.00 0.00 46 1018.0
20260905161605 95 319 0.9 3.5 0.00 0.00 0.00 48 1018.0
20260905161204 95 317 0.9 3.5 0.00 0.00 0.00 47 1018.1
20260905160405 94 311 0.9 5.2 0.00 0.00 0.00 49 1018.1
20260905155604 93 288 0.9 6.1 0.00 0.00 0.00 50 1018.2